sat.trackr.live / text

‹ back to catalog

YAOGAN-36 03B

NORAD 54374 · 2022-160C

PAYLOAD ACTIVE UNKNOWN

§ Identity

Operator
Country
PRC
Launch date
2022-11-27
Launch site
XICLF
Launch vehicle
Mass (kg)
RCS (m²)

External: N2YO · Heavens-Above · Gunter

§ Orbital elements

Epoch: 2026-05-25T04:35:51.508896Z

Period
94.70 min
Inclination
34.9912°
Eccentricity
0.0009230
Mean motion
15.20661451 rev/d
Perigee alt
497.5 km
Apogee alt
510.2 km
Semi-major
6,882.0 km
B*
2.1378e-4
RAAN
149.9902°
Arg perigee
303.9909°
Mean anomaly
55.9927°
Rev number
19,422

§ Raw data

YAOGAN-36 03B1 54374U 22160C   26145.19156839  .00004779  00000+0  21378-3 0  99942 54374  34.9912 149.9902 0009230 303.9909  55.9927 15.20661451194220

JSON: /api/v1/satellites/54374 · /tle

For live sub-satellite position, see the globe view (requires WebGL).

§ Visibility from observer

Set your observer location to see the next 7 days of passes ≥ 10°. The values pass through the URL so the page stays shareable.

No JS? Fill the form by hand. The geolocation button needs JavaScript.